Location: St Andrew
(49.4460°N, 2.5750°W)
Time: 04:58:13
(UTC+00:00)

Daily predictions for brighter satellites

Satellite Brightness Start Highest point End
(mag) Time Altitude Azimuth Time Altitude Azimuth Time Altitude Azimuth
NOSS 3-1 (A) 4.3 03:55:59 60° ESE 03:55:59 60° ESE 04:02:43 10° SE
Cosmos 2297 Rocket 4.1 04:02:22 24° NNE 04:02:22 24° NNE 04:04:29 10° NNE
ATLAS 2AS CENTAUR R/B 3.9 04:00:47 38° N 04:02:27 42° NNE 04:09:51 10° E
Cosmos 2227 Rocket 4.0 04:16:09 23° NNE 04:16:09 23° NNE 04:18:11 10° NNE
Cosmos 2233 Rocket 4.5 04:20:13 54° ESE 04:20:57 57° E 04:27:08 10° NNE
USA 234 3.8 04:22:30 10° E 04:28:43 48° N 04:29:00 48° N
Cosmos 1943 4.1 04:29:18 43° NE 04:29:55 45° NE 04:35:22 10° SE
NOSS 3-1 (C) 4.2 04:33:43 58° S 04:33:43 58° S 04:40:33 10° SSE
Meteor 1-11 4.4 04:45:16 70° NNE 04:45:48 75° ENE 04:51:35 10° SSE
Cosmos 292 Rocket 4.5 04:54:17 48° SE 04:54:17 48° SE 04:57:48 10° SSE
Cosmos 1603 4.5 04:59:10 39° S 04:59:10 39° S 05:02:45 10° SSE
Cosmos 1777 Rocket 4.2 05:01:08 52° SSE 05:02:14 68° ESE 05:07:26 10° NNE
Cosmos 2221 3.4 05:00:32 10° SSE 05:04:40 48° E 05:08:50 10° NNE
Feng Yun 1-1 Rocket 4.2 04:59:43 10° NNE 05:05:14 85° ESE 05:07:44 35° SSW
SKYMED 2 3.8 05:08:12 10° SSE 05:12:00 66° SE 05:12:00 66° SE
Cosmos 1666 Rocket 4.2 05:15:59 15° N 05:19:35 55° ENE 05:23:59 10° SSE
Okean-O 4.1 05:15:17 10° N 05:17:21 27° N 05:17:21 27° N
Cosmos 1464 Rocket 4.2 05:13:39 10° S 05:19:54 72° E 05:26:08 10° NNE
ADEOS II 3.5 05:17:37 10° N 05:20:00 24° NNW 05:20:00 24° NNW
Tiangong 2 3.6 05:23:18 16° SSE 05:23:18 16° SSE 05:24:53 10° ESE
ATLAS CENTAUR R/B 3.3 05:22:04 31° N 05:22:47 33° NNE 05:29:44 10° E
SeaSat 1 2.3 05:20:51 10° NNE 05:25:49 80° WNW 05:27:02 52° SW
Meteor 2-1 Rocket 4.3 05:22:41 10° S 05:28:22 83° E 05:34:13 10° NNE
SJ-6F 4.3 05:26:55 10° N 05:30:52 72° NW 05:30:52 72° NW
Ariane Rocket 3.9 05:27:50 10° NNE 05:32:49 49° E 05:37:45 10° S
Cosmos 2227 4.0 05:32:15 37° SW 05:34:31 72° WNW 05:40:11 10° NNE
Cosmos 923 Rocket 4.3 05:39:48 44° WSW 05:39:48 44° WSW 05:44:40 10° S
Cosmos 1908 4.4 05:38:29 10° SSE 05:42:08 44° E 05:45:48 10° NNE
Cosmos 1072 Rocket 4.3 05:36:27 10° SSW 05:42:34 75° W 05:48:43 10° N
Cosmos 2297 Rocket 3.5 05:44:11 23° NNW 05:44:11 23° NNW 05:48:03 10° NNE
Cosmos 1680 Rocket 3.6 05:44:43 40° WNW 05:46:08 51° WSW 05:51:16 10° S
Cosmos 968 Rocket 4.3 05:51:14 32° NW 05:51:14 32° NW 05:55:42 10° N
Cosmos 1470 Rocket 4.4 05:48:17 10° N 05:52:32 51° ENE 05:56:46 10° SSE
ATLAS 2AS CENTAUR R/B 3.0 05:48:14 20° NW 05:54:16 81° SW 06:01:55 10° SSE
TELKOM 3 3.8 05:55:46 52° ESE 05:55:46 52° ESE 05:57:33 10° E
Cosmos 1626 2.3 05:56:31 49° WSW 05:56:31 49° WSW 05:59:59 10° S
Cosmos 1805 Rocket 3.8 05:56:45 37° WNW 05:57:46 44° W 06:01:55 10° SSW
Cosmos 2227 Rocket 3.8 05:57:58 17° NNW 05:57:58 17° NNW 06:01:27 10° N
COSMO-SKYMED 1 3.1 05:56:43 10° SSW 06:00:36 35° W 06:00:36 35° W
IDEFIX/ARIANE 42P 4.0 05:55:58 10° NNE 06:00:57 41° E 06:05:55 10° SSE
Cosmos 1356 Rocket 4.1 06:09:56 31° W 06:09:56 31° W 06:13:37 10° SSW
Sich 1 3.1 06:06:26 13° NNW 06:10:11 49° W 06:14:20 10° SSW
USA 234 3.3 06:04:49 10° ESE 06:11:21 77° NNE 06:16:21 19° NW
Cosmos 1943 3.8 06:11:09 23° WNW 06:13:53 36° WSW 06:19:01 10° S
Cosmos 2082 Rocket 4.4 06:11:56 10° N 06:15:41 18° NE 06:19:27 10° ENE
Meteor 1-28 Rocket 3.9 06:13:21 10° SSW 06:16:43 31° W 06:17:20 30° WNW
Cosmos 1937 Rocket 4.5 06:12:29 10° S 06:17:25 49° ESE 06:22:22 10° NNE
Aureole 3 4.4 06:12:46 10° N 06:19:39 88° E 06:25:04 10° S
Cosmos 1633 Rocket 3.3 06:16:44 10° NNW 06:20:52 44° W 06:24:59 10° SSW
CZ-2C R/B 2.9 06:17:53 10° NNE 06:22:25 59° E 06:26:56 10° S
CSL-04 Debris 4.2 06:19:25 10° NNE 06:24:57 87° WNW 06:30:24 10° SSW
Cosmos 1328 Rocket 3.5 06:22:34 10° S 06:26:55 84° W 06:31:21 10° N
OPS 8737 4.2 06:23:45 10° SW 06:26:58 88° SE 06:30:14 10° NE
Cosmos 1151 Rocket 3.9 06:22:54 10° S 06:27:02 51° E 06:31:12 10° NNE
YAOGAN 3 4.5 06:22:45 10° N 06:27:08 76° WNW 06:31:29 10° SSW
Nadezhda 4 Rocket 4.1 06:21:30 10° NNW 06:27:39 55° W 06:33:43 10° SSW
Cosmos 2228 Rocket 3.0 06:23:49 10° SSW 06:28:14 78° W 06:32:39 10° N
Helios 1B rocket 2.8 06:24:46 10° SSE 06:28:51 68° ENE 06:32:57 10° N
CSL-04 DEB 4.5 06:26:20 10° NNE 06:30:44 74° WNW 06:34:59 10° SSW
Cosmos 2026 Rocket 4.2 06:24:57 10° N 06:31:03 75° E 06:37:07 10° SSE
Cosmos 2263 Rocket 2.1 06:29:10 10° SW 06:34:51 73° WNW 06:40:35 10° NNE
CZ-4 R/B 1.5 06:31:43 10° NNE 06:35:50 85° ESE 06:39:58 10° SSW
GENESIS II 4.2 06:33:01 15° NW 06:36:17 83° SW 06:40:15 10° SE
Cosmos 2034 Rocket 4.3 06:32:36 10° SW 06:38:32 44° WNW 06:44:33 10° N
Cosmos 2298 Rocket 4.0 06:33:24 10° SSW 06:38:42 88° WNW 06:44:02 10° NNE
Gbstr 26 Del rocket 4.2 06:33:24 10° SW 06:38:58 71° SSE 06:45:56 10° ENE
SMAP 3.3 06:34:31 10° NNE 06:39:13 73° ESE 06:43:51 10° S
Cosmos 1515 Rocket 3.5 06:35:52 10° SSW 06:40:18 82° W 06:44:48 10° N
SJ-12 3.8 06:37:42 10° NNE 06:41:49 81° WNW 06:45:52 10° SSW
Cosmos 2221 3.8 06:39:23 10° WSW 06:42:34 20° WNW 06:45:44 10° NNW
CSL-04 Rocket 3.7 06:39:46 10° N 06:44:55 53° WNW 06:50:02 10° SW
Meteor 2-20 4.5 06:39:22 10° N 06:45:36 90° WSW 06:51:46 10° S
YAOGAN 1 2.8 06:42:59 10° NNE 06:47:20 77° ESE 06:51:40 10° S
APEX 2.8 06:44:09 10° SW 06:47:24 48° WNW 06:50:13 10° NNE
COSMOS 2406 3.2 06:42:57 10° NNW 06:48:46 81° WSW 06:54:32 10° SSE
Cosmos 1092 Rocket 4.2 06:44:12 10° NNW 06:50:15 51° W 06:56:12 10° SSW
MSX 4.3 06:44:42 10° NNE 06:50:29 69° ESE 06:56:14 10° S
ATLAS CENTAUR R/B 3.6 06:48:32 10° NNW 06:50:51 15° NNE 06:53:06 10° ENE
Cosmos 389 Rocket 3.4 06:48:12 10° SW 06:51:26 28° WNW 06:54:40 10° N
SL-27 R/B 3.5 06:49:11 10° N 06:52:27 42° ENE 06:55:40 10° SE
AQUARIUS 4.1 06:50:36 10° NNE 06:55:08 79° WNW 06:59:38 10° SSW
Iridium 4 Rocket 3.1 06:51:53 10° N 06:56:14 71° W 07:00:53 10° S
Cosmos 1726 2.0 06:54:32 10° SSW 06:58:13 75° W 07:01:58 10° N
Cosmos 1484 Rocket 3.4 06:54:18 10° NNE 06:58:19 64° ESE 07:02:15 10° S
Tiangong 2 3.0 06:56:06 10° WSW 06:58:42 24° S 07:01:18 10° SE
Cosmos 2279 Rocket 4.3 06:55:00 10° S 07:01:09 74° E 07:07:21 10° NNE
SeaSat 1 3.8 06:59:16 10° N 07:02:43 19° NW 07:06:10 10° W
Cosmos 2344 3.8 06:59:18 10° SW 07:07:04 77° NW 07:16:25 10° NE
Cosmos 1455 4.3 07:04:30 10° SSE 07:07:51 31° E 07:11:13 10° NNE
Cosmos 1933 Rocket 4.4 07:04:51 10° NNW 07:08:48 31° W 07:12:41 10° SSW
BREEZE-M DEB (TANK) 3.2 07:07:25 10° W 07:09:40 25° SSW 07:11:30 10° SSE
Ariane Rocket 3.9 07:07:15 10° N 07:11:33 28° WNW 07:15:50 10° WSW
SPOT 3 Rocket 3.6 07:07:47 10° NNE 07:13:01 75° WNW 07:18:13 10° SSW
EP 1 4.2 07:11:24 10° SW 07:13:57 63° NW 07:16:45 10° NE
